Location: High Meadows Obseravatory
(40.7417°N, 111.5713°W)
Time: 23:40:29
(UTC-07:00)

BlueWalker 3 - Pass Details

Date: 01 December 2022
Orbit: 499 x 517 km, 53.2° (Epoch: 02 February)

Event Time Altitude Azimuth Distance (km) Brightness Sun altitude
Rises 17:13:33 0° 279° (W) 2,624 6.6 -3.2°
Reaches altitude 10° 17:16:20 10° 299° (WNW) 1,734 5.2 -3.7°
Maximum altitude 17:19:03 18° 343° (NNW) 1,319 4.0 -4.1°
Drops below altitude 10° 17:21:45 10° 27° (NNE) 1,728 4.2 -4.6°
Enters shadow 17:23:26 - 41° (NE) 2,240 4.7 -4.9°
Exits shadow 17:58:58 -71° 98° (E) 12,553 8.9 -11.1°
